FW2015 Surf City NJ US current weather conditions

sailwx.info

Wind from 134

Air temperature 25.0° C
Dewpoint 23.6° C

Last reported at 2020-Jul-10 02:00 UTC.
Time now 2020-Jul-10 02:49 UTC

Location: N 39°40' W 074°09'.
View on Google Maps.

See reports from other nearby stations

  
Tides and Currents Weather Stations Pressure Air Temp Water Temp Dewpoint Dewpoint Depression Visibility Wind Speed Wind Dir Waves Ship Positions
date/time (UTC)wind fromknots sea level pressurealtimeterstation pressurevisibilityair tempwater tempwave heightnotes
2020-Jul-10 02:00 134 25.0
2020-Jul-10 01:45 146 25.0
2020-Jul-10 01:30 128 25.0
2020-Jul-10 01:15 127 25.0
2020-Jul-10 01:01 134 25.0
2020-Jul-10 00:46 119 25.6
2020-Jul-10 00:31 116 25.6
2020-Jul-10 00:16 122 25.6
2020-Jul-10 00:01 122 25.6
2020-Jul-09 23:46 137 26.1
2020-Jul-09 23:31 119 26.1
2020-Jul-09 23:18 124 26.1
2020-Jul-09 23:01 132 26.7
2020-Jul-09 22:47 130 26.7
2020-Jul-09 22:32 144 26.7
2020-Jul-09 22:17 150 0 gusting 6 27.2
2020-Jul-09 21:46 136 27.2
2020-Jul-09 21:31 127 27.2
2020-Jul-09 21:16 163 27.2
2020-Jul-09 21:01 172 27.8
2020-Jul-09 20:46 181 0 gusting 6 27.8
2020-Jul-09 20:31 162 27.8
2020-Jul-09 20:16 143 27.8
2020-Jul-09 20:01 145 27.8
2020-Jul-09 19:45 132 28.3
2020-Jul-09 19:31 154 28.3
2020-Jul-09 19:16 153 28.3
2020-Jul-09 19:01 115 28.3
2020-Jul-09 18:45 154 0 gusting 7 27.8
2020-Jul-09 18:31 121 27.8
2020-Jul-09 18:15 160 27.8
2020-Jul-09 18:00 140 27.8
2020-Jul-09 17:46 162 0 gusting 6 27.8
2020-Jul-09 17:30 107 27.2
2020-Jul-09 17:15 148 27.8
2020-Jul-09 17:00 163 27.8
2020-Jul-09 16:45 152 27.2
2020-Jul-09 16:30 117 27.2
2020-Jul-09 16:15 153 27.2
2020-Jul-09 16:00 145 27.2
2020-Jul-09 15:45 158 1 gusting 6 26.7
2020-Jul-09 15:30 202 27.2
2020-Jul-09 15:15 118 26.7
2020-Jul-09 15:00 150 26.7
2020-Jul-09 14:45 149 26.7
2020-Jul-09 14:30 150 26.7
2020-Jul-09 14:15 079 26.1
2020-Jul-09 14:00 120 25.6
2020-Jul-09 13:45 165 25.6
2020-Jul-09 13:18 114 25.6
2020-Jul-09 13:01 117 25.6
2020-Jul-09 12:46 145 25.6
2020-Jul-09 12:31 130 25.6
2020-Jul-09 12:18 146 25.0
2020-Jul-09 12:02 102 25.0
2020-Jul-09 11:47 118 25.0
2020-Jul-09 11:31 121 24.4
2020-Jul-09 11:16 108 23.9
2020-Jul-09 11:01 106 23.9
2020-Jul-09 10:46 108 23.9
2020-Jul-09 10:30 222 23.9
2020-Jul-09 10:16 222 23.3
2020-Jul-09 10:01 222 23.3
2020-Jul-09 09:46 222 23.3
2020-Jul-09 09:30 222 22.8
2020-Jul-09 09:15 222 23.3
2020-Jul-09 09:00 222 22.8
2020-Jul-09 08:45 222 22.8
2020-Jul-09 08:31 222 22.8
2020-Jul-09 08:15 222 23.3
2020-Jul-09 08:01 240 23.3
2020-Jul-09 07:46 240 23.3
2020-Jul-09 07:31 194 23.3
2020-Jul-09 07:15 226 23.3
2020-Jul-09 07:00 233 23.3
2020-Jul-09 06:46 245 23.3
2020-Jul-09 06:30 250 23.3
2020-Jul-09 06:15 219 23.3
2020-Jul-09 06:00 235 23.9
2020-Jul-09 05:45 283 23.9
2020-Jul-09 05:31 233 23.3
2020-Jul-09 05:15 217 23.3
2020-Jul-09 05:00 213 23.3
2020-Jul-09 04:45 251 0 gusting 6 23.3
2020-Jul-09 04:31 217 0 gusting 5 23.9
2020-Jul-09 04:15 226 23.9
2020-Jul-09 04:00 255 23.9
2020-Jul-09 03:45 238 23.9
2020-Jul-09 03:30 218 23.9
2020-Jul-09 03:15 240 23.9
2020-Jul-09 03:00 238 23.9
2020-Jul-09 02:45 222 23.9
2020-Jul-09 02:30 246 23.9
2020-Jul-09 02:15 226 23.9
2020-Jul-09 02:00 248 23.9
2020-Jul-09 01:45 231 23.9
2020-Jul-09 01:30 234 24.4
2020-Jul-09 01:15 232 24.4
2020-Jul-09 01:00 180 24.4
2020-Jul-09 00:45 224 24.4
2020-Jul-09 00:15 278 24.4
2020-Jul-09 00:00 174 24.4
2020-Jul-08 23:45 241 24.4
2020-Jul-08 23:33 202 25.0
2020-Jul-08 23:16 222 25.0
2020-Jul-08 23:01 221 25.6
2020-Jul-08 22:48 211 26.1
2020-Jul-08 22:31 266 26.1
2020-Jul-08 22:16 274 0 gusting 7 26.1
2020-Jul-08 22:01 222 2 gusting 9 26.1
2020-Jul-08 21:46 236 2 gusting 8 26.1
2020-Jul-08 21:31 201 26.7
2020-Jul-08 21:16 212 26.7
2020-Jul-08 21:01 226 2 gusting 8 26.7
2020-Jul-08 20:46 280 26.7
2020-Jul-08 20:31 220 26.7
2020-Jul-08 20:16 240 2 gusting 8 26.7
2020-Jul-08 20:01 220 26.7
2020-Jul-08 19:47 211 0 gusting 8 26.7
2020-Jul-08 19:31 241 0 gusting 8 26.7
2020-Jul-08 19:16 254 26.7
2020-Jul-08 19:01 223 0 gusting 9 26.7
2020-Jul-08 18:45 225 27.2
2020-Jul-08 18:30 217 0 gusting 7 27.2
2020-Jul-08 18:15 243 1 gusting 12 26.7
2020-Jul-08 18:01 221 27.2
2020-Jul-08 17:45 215 27.2
2020-Jul-08 17:31 212 0 gusting 8 27.2
2020-Jul-08 17:15 230 27.2
2020-Jul-08 17:00 252 26.7
2020-Jul-08 16:45 198 26.7
2020-Jul-08 16:30 205 1 gusting 8 26.1
2020-Jul-08 16:15 236 0 gusting 8 26.1
2020-Jul-08 16:00 214 0 gusting 9 26.1
2020-Jul-08 15:45 230 26.1
2020-Jul-08 15:30 199 2 gusting 9 26.1
2020-Jul-08 15:15 248 0 gusting 6 26.1
2020-Jul-08 15:00 264 0 gusting 7 26.1
2020-Jul-08 14:45 172 2 gusting 9 25.6
2020-Jul-08 14:30 238 0 gusting 9 25.6
2020-Jul-08 14:15 271 25.6
2020-Jul-08 13:47 211 25.0
2020-Jul-08 13:31 210 25.0
2020-Jul-08 13:17 219 25.0
2020-Jul-08 13:02 212 25.0
2020-Jul-08 12:47 217 24.4
2020-Jul-08 12:32 210 24.4
2020-Jul-08 12:18 233 24.4
2020-Jul-08 12:01 214 24.4
2020-Jul-08 11:45 231 23.9
2020-Jul-08 11:32 221 23.9
2020-Jul-08 11:16 224 23.9
2020-Jul-08 11:01 245 23.3
2020-Jul-08 10:46 203 23.3
2020-Jul-08 10:32 259 22.8
2020-Jul-08 10:16 190 22.8
2020-Jul-08 10:00 217 22.8
2020-Jul-08 09:46 241 22.8
2020-Jul-08 09:30 212 22.8
2020-Jul-08 09:16 223 22.2
2020-Jul-08 09:01 214 22.2
2020-Jul-08 08:46 205 22.8
2020-Jul-08 08:30 231 22.8
2020-Jul-08 08:15 238 22.8
2020-Jul-08 08:00 257 23.3
2020-Jul-08 07:45 224 23.3
2020-Jul-08 07:31 252 23.3
2020-Jul-08 07:15 190 23.3
2020-Jul-08 07:00 268 23.3
2020-Jul-08 06:45 273 23.3
2020-Jul-08 06:30 202 23.3
2020-Jul-08 06:16 218 23.3
2020-Jul-08 06:00 219 23.3
2020-Jul-08 05:45 236 23.3
2020-Jul-08 05:30 254 23.3
2020-Jul-08 05:15 256 0 gusting 6 23.3
2020-Jul-08 05:00 237 23.3
2020-Jul-08 04:45 226 23.3
2020-Jul-08 04:30 250 23.3
2020-Jul-08 04:15 225 23.3
2020-Jul-08 04:00 250 23.3
2020-Jul-08 03:45 248 23.3
2020-Jul-08 03:30 229 0 gusting 5 23.3
2020-Jul-08 03:15 235 23.3
2020-Jul-08 03:00 232 23.3
2020-Jul-08 02:45 233 23.3
2020-Jul-08 02:32 217 23.3
2020-Jul-08 02:16 240 23.3
2020-Jul-08 02:01 240 23.9